Flag for United Kingdom Weather past 2 weeks in Southend-on-Sea, England, United Kingdom

Now
48 °F

Passing clouds.


Feels Like: 41 °F
Forecast: 41 / 48 °F
Wind: 20 mph from West

Location: Southend Airport-On-Sea

Current Time: Dec 20, 2014 at 1:14:52 PM

Latest Report: Dec 20, 2014 at 12:50 PM


Visibility: N/A

Pressure: 30.24 "Hg

Humidity: 62%

Dew point: 36 °F

Location of Southend-on-SeaLocation

Historic Weather in Southend-on-Sea — Graph

°F

Southend-on-Sea temperature yesterday

Maximum temperature yesterday: 55 °F (at 12:20 AM)
Minimum temperature yesterday: 43 °F (at 8:20 PM)
Average temperature yesterday: 49 °F

Past Weeks' High & Low Weather Summary

 TemperatureHumidityPressure
High57 °F (Dec 18, 10:20 AM)94% (Dec 9, 11:20 PM)30.39 "Hg (Dec 9, 11:20 PM)
Low28 °F (Dec 13, 6:50 PM)41% (Dec 6, 2:50 AM)29.27 "Hg (Dec 12, 5:20 AM)
Average44 °F78%29.93 "Hg
* Reported Dec 5 12:20 PM — Dec 20 12:20 PM, Southend-on-Sea, Weather by CustomWeather, © 2014

Note: Actual official high and low records may vary slightly from our data, if they occured in-between our weather recording intervals... More about our weather records

Advertising

Southend-on-Sea weather history for previous 24 hours

 ConditionsComfort  
Time TempWeatherWind HumidityBarometerVisibility
12:20 PM
Dec 20
48 °FPassing clouds.18 mph62%30.24 "HgN/A
11:50 AM48 °FScattered clouds.22 mph62%30.24 "HgN/A
11:20 AM48 °FScattered clouds.20 mph66%30.24 "HgN/A
10:50 AM48 °FScattered clouds.17 mph66%30.24 "HgN/A
10:20 AM46 °FScattered clouds.17 mph71%30.24 "HgN/A
9:50 AM45 °FPassing clouds.16 mph71%30.24 "HgN/A
9:20 AM45 °FPassing clouds.16 mph71%30.21 "HgN/A
8:50 AM45 °FPassing clouds.16 mph71%30.21 "HgN/A
8:20 AM45 °FPassing clouds.14 mph71%30.21 "HgN/A
7:50 AM45 °FClear.17 mph71%30.21 "Hg10 mi
7:20 AM43 °FPassing clouds.16 mph76%30.21 "HgN/A
6:50 AM43 °FPassing clouds.17 mph71%30.18 "HgN/A
6:20 AM43 °FPassing clouds.18 mph71%30.21 "HgN/A
5:50 AM43 °FPassing clouds.18 mph71%30.18 "HgN/A
5:20 AM45 °FClear.17 mph71%30.21 "Hg10 mi
4:50 AM43 °FClear.16 mph76%30.21 "Hg10 mi
3:50 AM43 °FClear.17 mph76%30.18 "Hg10 mi
2:50 AM43 °FClear.17 mph76%30.18 "Hg10 mi
12:50 AM43 °FClear.15 mph76%30.18 "Hg10 mi
11:50 PM
Dec 19
43 °FClear.15 mph76%30.21 "Hg10 mi
10:50 PM43 °FClear.15 mph76%30.18 "Hg10 mi
9:50 PM43 °FClear.14 mph76%30.18 "Hg10 mi
9:20 PM43 °FClear.15 mph76%30.15 "Hg10 mi
8:50 PM43 °FClear.15 mph76%30.15 "Hg10 mi
8:20 PM43 °FClear.10 mph71%30.15 "Hg10 mi
7:50 PM45 °FClear.13 mph66%30.15 "Hg10 mi
7:20 PM45 °FClear.14 mph66%30.12 "Hg10 mi
6:50 PM45 °FClear.12 mph66%30.12 "Hg10 mi
6:20 PM45 °FClear.12 mph66%30.09 "Hg10 mi
5:50 PM45 °FClear.12 mph66%30.09 "Hg10 mi
5:20 PM46 °FClear.12 mph62%30.09 "Hg10 mi
4:50 PM46 °FPassing clouds.12 mph62%30.07 "HgN/A
4:20 PM46 °FPassing clouds.15 mph62%30.04 "HgN/A
3:50 PM46 °FPassing clouds.14 mph62%30.04 "HgN/A
3:20 PM48 °FPassing clouds.17 mph58%30.01 "HgN/A
2:50 PM48 °FPassing clouds.18 mph58%30.01 "HgN/A
2:20 PM48 °FPassing clouds.17 mph58%30.01 "HgN/A
1:50 PM48 °FPassing clouds.16 mph54%29.98 "HgN/A
1:20 PM50 °FPassing clouds.17 mph54%29.98 "HgN/A
Weather by CustomWeather, © 2014

See weather overviewHow to use our weather pages